Cloud_Cover
11 0 17 65 86 6 66 92 100 100 100 100 58 13 39 5 6 100 93 100 89 15 11 13 11 17 5 0 5 0 5 5 100 26 9 0 78 26 39 32 0 0 0 4 5
27 0 24 100 23 5 26 57 100 100 97 100 100 6 66 100 96 30 100 32 12 97 100 16 5 5 5 3 0 2 0 27 100 62 7 0 6 99 100 13 1 0 4 1 0
10 29 13 27 33 10 5 11 17 97 100 100 100 100 98 99 100 67 73 96 92 94 100 99 88 97 5 5 2 0 5 62 68 3 4 0 4 100 34 51 77 70 31 9 17
33 71 58 78 25 12 5 13 25 81 53 69 52 20 29 99 100 100 100 100 100 51 81 100 100 88 4 2 5 1 5 92 5 31 2 4 5 1 1 6 18 26 50 26 18
5 8 100 100 30 5 60 5 8 79 79 94 10 5 5 5 35 91 80 72 72 53 83 75 33 5 5 0 0 3 5 5 5 58 5 5 4 5 0 5 2 0 0 0 0
82 5 44 83 34 60 92 5 6 12 5 5 5 16 5 20 3 5 5 34 75 6 21 6 5 5 1 2 0 0 0 5 100 28 5 5 4 5 5 1 0 0 0 0 0
100 99 38 5 92 42 70 10 5 5 5 5 6 27 61 100 59 5 5 100 100 83 5 5 6 47 4 0 0 0 0 5 60 43 93 6 5 15 11 5 0 0 0 0 0
32 83 94 45 48 61 39 5 5 5 4 0 3 0 0 4 17 84 11 5 2 4 4 5 5 5 17 55 5 0 0 5 61 76 100 96 50 100 25 7 4 0 2 1 0
100 89 54 77 73 13 5 5 5 3 0 1 2 0 0 0 0 0 0 0 0 0 0 0 0 2 6 56 78 100 68 9 64 75 100 86 86 79 23 1 0 8 4 1 0
50 100 57 12 5 5 5 0 0 31 18 0 0 0 0 0 0 0 0 0 0 0 0 0 0 0 0 0 2 1 24 99 9 100 98 5 58 82 5 0 3 83 100 35 5
93 94 100 100 26 5 7 0 0 1 0 0 0 0 0 0 0 0 0 0 0 0 0 0 0 0 0 0 0 0 0 0 0 18 2 0 5 5 1 0 0 5 84 100 100
53 13 5 6 30 5 14 5 5 1 0 0 0 0 0 0 0 0 0 0 0 0 0 0 0 0 0 0 0 0 0 0 0 0 0 0 0 0 0 0 2 92 77 24 95
82 2 1 5 5 34 5 5 5 5 0 0 0 0 0 0 0 0 0 0 0 0 0 0 0 0 0 0 0 0 0 0 0 0 0 0 0 0 0 0 0 97 100 100 100
58 0 0 0 47 5 28 10 5 5 5 0 0 0 0 0 0 0 0 0 0 0 0 0 0 0 0 0 0 0 0 0 0 0 0 0 0 0 0 1 0 8 100 100 96
6 5 0 83 0 0 3 5 7 5 2 5 0 0 0 0 0 0 0 0 0 0 0 0 0 0 0 0 0 0 0 0 0 0 0 0 0 0 5 10 100 94 44 26 79
4 1 1 30 0 0 0 0 0 4 1 5 0 0 0 0 0 0 0 0 0 0 0 0 0 0 0 0 4 0 0 5 0 0 0 4 3 0 0 9 100 100 87 12 3
2 1 25 0 0 0 0 0 0 0 3 11 4 5 0 0 0 0 0 0 0 0 0 0 1 5 5 0 0 0 0 2 2 0 1 8 80 89 0 5 74 26 16 32 36
1 4 0 0 0 0 0 5 19 1 5 42 5 3 5 0 1 0 0 0 0 0 0 49 65 4 0 4 3 4 0 0 5 45 28 94 20 26 38 89 100 100 99 72 5
6 0 0 0 0 0 0 4 8 6 5 1 5 19 22 21 31 7 4 2 46 1 0 42 100 36 5 0 0 3 5 5 1 3 100 100 96 100 59 88 46 7 3 0 0
0 0 0 0 0 0 0 0 4 0 0 0 2 15 72 88 86 87 63 61 98 6 15 10 74 94 38 0 0 0 25 100 41 15 4 97 90 95 12 39 26 4 0 0 0
0 0 0 0 0 0 0 82 23 0 0 0 0 5 5 39 60 100 100 99 25 52 97 99 50 78 98 3 0 54 2 0 23 61 100 82 100 14 56 62 96 100 67 24 4
0 4 0 0 0 0 5 43 0 0 0 0 0 0 4 10 9 8 98 100 100 92 63 100 50 99 100 18 5 5 0 27 98 52 40 9 100 26 32 100 90 13 80 90 9
0 0 0 0 4 52 3 0 0 0 0 0 0 0 0 0 2 46 97 62 100 100 78 82 59 80 96 81 93 100 19 5 5 4 5 60 100 92 100 92 24 2 3 3 2
0 5 0 0 0 0 7 16 5 0 0 0 4 5 5 7 1 1 38 45 100 100 100 100 100 75 88 98 94 100 100 80 54 6 15 99 90 5 10 64 13 5 5 5 5
0 0 0 4 4 0 0 2 3 5 0 0 3 51 99 99 52 28 5 5 72 92 100 100 100 100 100 97 100 63 63 86 100 100 71 100 26 10 13 64 6 17 30 8 49
0 0 0 0 0 2 1 5 0 5 3 5 2 3 42 90 100 100 39 98 22 18 100 100 100 100 100 100 100 100 100 100 99 100 100 100 100 100 100 100 100 100 100 100 100
0 0 0 0 3 2 4 3 3 2 15 1 0 0 4 21 82 100 100 100 100 100 100 100 100 100 100 100 100 100 100 100 100 100 99 100 100 100 100 100 100 98 98 100 100